| time (UTC) | temp C | wind direction | speed KPH | gust KPH | rain 1hr cm | rain 24hr cm | rain mn cm | humidity % | barometer mb |
| 20260831022217 | 20 | 69 | 11.3 | 16.1 | 0.00 | 0.03 | 0.03 | 59 | 1030.0 |
| 20260831021716 | 20 | 84 | 9.7 | 12.9 | 0.00 | 0.03 | 0.03 | 60 | 1030.1 |
| 20260831021216 | 19 | 79 | 11.3 | 14.5 | 0.00 | 0.03 | 0.03 | 55 | 1030.3 |
| 20260831020717 | 18 | 84 | 11.3 | 14.5 | 0.00 | 0.03 | 0.03 | 50 | 1030.3 |
| 20260831015717 | 18 | 60 | 14.5 | 16.1 | 0.00 | 0.03 | 0.03 | 52 | 1030.5 |
| 20260831015216 | 18 | 56 | 12.9 | 16.1 | 0.00 | 0.03 | 0.03 | 52 | 1030.6 |
| 20260831014716 | 18 | 53 | 12.9 | 19.3 | 0.00 | 0.03 | 0.03 | 54 | 1030.8 |
| 20260831014216 | 18 | 49 | 12.9 | 14.5 | 0.00 | 0.03 | 0.03 | 54 | 1030.7 |
| 20260831013716 | 18 | 43 | 6.4 | 11.3 | 0.00 | 0.03 | 0.03 | 56 | 1030.8 |
| 20260831011216 | 19 | 72 | 1.6 | 8.0 | 0.00 | 0.03 | 0.03 | 55 | 1031.1 |
| 20260831010216 | 18 | 310 | 1.6 | 8.0 | 0.00 | 0.03 | 0.03 | 55 | 1031.5 |
| 20260831005716 | 18 | 2 | 9.7 | 14.5 | 0.00 | 0.03 | 0.03 | 54 | 1031.5 |
| 20260831005216 | 18 | 352 | 4.8 | 12.9 | 0.00 | 0.03 | 0.03 | 55 | 1031.5 |
| 20260831004216 | 17 | 321 | 11.3 | 16.1 | 0.00 | 0.03 | 0.03 | 55 | 1031.5 |
| 20260831003716 | 17 | 338 | 9.7 | 14.5 | 0.00 | 0.03 | 0.03 | 59 | 1031.6 |
| 20260831003217 | 17 | 344 | 14.5 | 19.3 | 0.00 | 0.03 | 0.03 | 59 | 1031.4 |
| 20260831002716 | 17 | 343 | 12.9 | 19.3 | 0.00 | 0.03 | 0.03 | 61 | 1031.5 |
| 20260831002216 | 17 | 348 | 8.0 | 19.3 | 0.00 | 0.03 | 0.03 | 63 | 1031.5 |
| 20260831001716 | 16 | 355 | 11.3 | 20.9 | 0.00 | 0.03 | 0.03 | 64 | 1031.6 |
| 20260831001216 | 16 | 351 | 17.7 | 20.9 | 0.00 | 0.03 | 0.03 | 63 | 1031.6 |
| 20260831000218 | 16 | 334 | 11.3 | 19.3 | 0.00 | 0.03 | 0.03 | 66 | 1031.5 |
| 20260830235717 | 16 | 344 | 9.7 | 19.3 | 0.00 | 0.03 | 0.03 | 66 | 1031.5 |
| 20260830235216 | 16 | 349 | 9.7 | 19.3 | 0.00 | 0.03 | 0.03 | 67 | 1031.4 |
| 20260830234716 | 16 | 353 | 11.3 | 16.1 | 0.00 | 0.03 | 0.03 | 66 | 1031.5 |
| 20260830234216 | 16 | 353 | 11.3 | 14.5 | 0.00 | 0.03 | 0.03 | 66 | 1031.4 |
| 20260830233716 | 16 | 334 | 9.7 | 14.5 | 0.00 | 0.03 | 0.03 | 67 | 1031.6 |
| 20260830233216 | 16 | 346 | 9.7 | 14.5 | 0.00 | 0.03 | 0.03 | 67 | 1031.5 |
| 20260830232716 | 16 | 341 | 9.7 | 14.5 | 0.00 | 0.03 | 0.03 | 67 | 1031.6 |
| 20260830232216 | 16 | 334 | 9.7 | 14.5 | 0.00 | 0.03 | 0.03 | 69 | 1031.5 |
| 20260830231716 | 15 | 353 | 8.0 | 12.9 | 0.00 | 0.03 | 0.03 | 68 | 1031.6 |
| 20260830231217 | 15 | 341 | 8.0 | 12.9 | 0.00 | 0.03 | 0.03 | 69 | 1031.5 |
| 20260830230716 | 15 | 339 | 8.0 | 11.3 | 0.00 | 0.03 | 0.03 | 70 | 1031.6 |
| 20260830230216 | 15 | 327 | 4.8 | 8.0 | 0.00 | 0.03 | 0.03 | 71 | 1031.6 |
| 20260830225716 | 15 | 339 | 4.8 | 9.7 | 0.00 | 0.03 | 0.03 | 72 | 1031.8 |
| 20260830225216 | 14 | 338 | 6.4 | 9.7 | 0.00 | 0.03 | 0.03 | 73 | 1031.6 |
| 20260830224716 | 14 | 341 | 8.0 | 11.3 | 0.00 | 0.03 | 0.03 | 72 | 1031.5 |
| 20260830224216 | 14 | 340 | 8.0 | 11.3 | 0.00 | 0.03 | 0.03 | 73 | 1031.4 |
| 20260830223716 | 14 | 330 | 8.0 | 11.3 | 0.00 | 0.03 | 0.03 | 74 | 1031.4 |
| 20260830223216 | 14 | 342 | 4.8 | 9.7 | 0.00 | 0.03 | 0.03 | 74 | 1031.6 |
| 20260830222216 | 14 | 342 | 4.8 | 8.0 | 0.00 | 0.03 | 0.03 | 76 | 1031.4 |
| 20260830221716 | 14 | 336 | 4.8 | 8.0 | 0.00 | 0.03 | 0.03 | 77 | 1031.7 |
| 20260830220216 | 13 | 333 | 0.0 | 4.8 | 0.00 | 0.03 | 0.03 | 81 | 1031.5 |
| 20260830215716 | 13 | 333 | 1.6 | 8.0 | 0.00 | 0.03 | 0.03 | 82 | 1031.3 |
| 20260830215216 | 13 | 333 | 4.8 | 9.7 | 0.00 | 0.03 | 0.03 | 83 | 1031.4 |
| 20260830214216 | 12 | 329 | 3.2 | 8.0 | 0.00 | 0.03 | 0.03 | 87 | 1031.1 |
| 20260830213716 | 12 | 332 | 8.0 | 9.7 | 0.00 | 0.03 | 0.03 | 87 | 1031.2 |
| 20260830213215 | 12 | 332 | 9.7 | 11.3 | 0.00 | 0.03 | 0.03 | 88 | 1031.1 |
| 20260830212716 | 12 | 330 | 9.7 | 12.9 | 0.00 | 0.03 | 0.03 | 89 | 1030.9 |
| 20260830212216 | 11 | 330 | 8.0 | 11.3 | 0.00 | 0.03 | 0.03 | 89 | 1030.9 |
| 20260830211715 | 11 | 334 | 8.0 | 11.3 | 0.00 | 0.03 | 0.03 | 90 | 1031.1 |
| 20260830211215 | 11 | 321 | 9.7 | 11.3 | 0.00 | 0.03 | 0.03 | 90 | 1030.9 |
| 20260830210715 | 11 | 318 | 9.7 | 11.3 | 0.00 | 0.03 | 0.03 | 90 | 1031.0 |
| 20260830210216 | 11 | 318 | 11.3 | 12.9 | 0.00 | 0.03 | 0.03 | 90 | 1030.8 |
| 20260830205216 | 11 | 326 | 11.3 | 12.9 | 0.00 | 0.03 | 0.03 | 91 | 1030.7 |
| 20260830204716 | 11 | 326 | 9.7 | 11.3 | 0.00 | 0.03 | 0.03 | 91 | 1030.6 |
| 20260830204216 | 11 | 322 | 9.7 | 12.9 | 0.00 | 0.03 | 0.03 | 90 | 1030.6 |
| 20260830203716 | 11 | 321 | 11.3 | 12.9 | 0.00 | 0.03 | 0.03 | 90 | 1030.5 |
| 20260830202715 | 11 | 307 | 11.3 | 12.9 | 0.00 | 0.03 | 0.03 | 90 | 1030.5 |
| 20260830202216 | 11 | 307 | 9.7 | 11.3 | 0.00 | 0.03 | 0.03 | 90 | 1030.3 |
| 20260830201715 | 11 | 307 | 9.7 | 11.3 | 0.03 | 0.03 | 0.03 | 90 | 1030.3 |
| 20260830201215 | 11 | 310 | 9.7 | 9.7 | 0.03 | 0.03 | 0.03 | 89 | 1030.4 |
| 20260830200715 | 11 | 296 | 9.7 | 9.7 | 0.03 | 0.03 | 0.03 | 89 | 1030.3 |
| 20260830200216 | 11 | 289 | 9.7 | 11.3 | 0.03 | 0.03 | 0.03 | 89 | 1030.3 |
| 20260830195716 | 11 | 287 | 8.0 | 9.7 | 0.03 | 0.03 | 0.03 | 89 | 1030.3 |
| 20260830195216 | 11 | 287 | 8.0 | 9.7 | 0.03 | 0.03 | 0.03 | 88 | 1030.1 |
| 20260830194716 | 11 | 274 | 9.7 | 11.3 | 0.03 | 0.03 | 0.03 | 89 | 1030.2 |
| 20260830193715 | 11 | 274 | 9.7 | 11.3 | 0.03 | 0.03 | 0.03 | 89 | 1030.0 |
| 20260830193216 | 12 | 273 | 11.3 | 12.9 | 0.03 | 0.03 | 0.03 | 88 | 1030.0 |
| 20260830192715 | 12 | 273 | 12.9 | 12.9 | 0.03 | 0.03 | 0.03 | 89 | 1029.9 |
| 20260830191215 | 11 | 282 | 11.3 | 12.9 | 0.00 | 0.00 | 0.00 | 88 | 1030.0 |
| 20260830190715 | 12 | 279 | 11.3 | 12.9 | 0.00 | 0.00 | 0.00 | 88 | 1029.9 |
| 20260830190215 | 12 | 279 | 11.3 | 12.9 | 0.00 | 0.00 | 0.00 | 88 | 1029.9 |
| 20260830185216 | 12 | 287 | 9.7 | 11.3 | 0.00 | 0.00 | 0.00 | 87 | 1029.9 |
| 20260830184215 | 12 | 284 | 11.3 | 12.9 | 0.00 | 0.00 | 0.00 | 87 | 1029.8 |
| 20260830183715 | 12 | 283 | 11.3 | 11.3 | 0.00 | 0.00 | 0.00 | 86 | 1029.8 |
| 20260830183215 | 12 | 279 | 9.7 | 11.3 | 0.00 | 0.00 | 0.00 | 86 | 1029.8 |
| 20260830182716 | 12 | 274 | 9.7 | 9.7 | 0.00 | 0.00 | 0.00 | 84 | 1029.8 |
| 20260830182216 | 12 | 274 | 8.0 | 9.7 | 0.00 | 0.00 | 0.00 | 84 | 1029.8 |
| 20260830181716 | 12 | 269 | 8.0 | 9.7 | 0.00 | 0.00 | 0.00 | 83 | 1029.8 |
| 20260830181215 | 12 | 269 | 8.0 | 8.0 | 0.00 | 0.00 | 0.00 | 82 | 1029.8 |
| 20260830180715 | 13 | 286 | 4.8 | 4.8 | 0.00 | 0.00 | 0.00 | 82 | 1029.7 |
| 20260830180215 | 13 | 286 | 3.2 | 4.8 | 0.00 | 0.00 | 0.00 | 82 | 1029.8 |
| 20260830175716 | 13 | 286 | 3.2 | 4.8 | 0.00 | 0.00 | 0.00 | 83 | 1029.7 |
| 20260830175215 | 13 | 281 | 3.2 | 4.8 | 0.00 | 0.00 | 0.00 | 82 | 1029.8 |
| 20260830174716 | 14 | 271 | 4.8 | 4.8 | 0.00 | 0.00 | 0.00 | 82 | 1029.9 |
| 20260830174216 | 14 | 247 | 0.0 | 0.0 | 0.00 | 0.00 | 0.00 | 82 | 1030.0 |
| 20260830173715 | 14 | 241 | 0.0 | 0.0 | 0.00 | 0.00 | 0.00 | 83 | 1030.0 |
| 20260830173216 | 14 | 227 | 0.0 | 0.0 | 0.00 | 0.00 | 0.00 | 82 | 1030.1 |
| 20260830172716 | 14 | 217 | 0.0 | 0.0 | 0.00 | 0.00 | 0.00 | 82 | 1030.1 |
| 20260830172215 | 14 | 217 | 1.6 | 8.0 | 0.00 | 0.00 | 0.00 | 83 | 1030.1 |
| 20260830171715 | 14 | 216 | 6.4 | 8.0 | 0.00 | 0.00 | 0.00 | 82 | 1030.0 |
| 20260830171215 | 14 | 217 | 4.8 | 4.8 | 0.00 | 0.00 | 0.00 | 83 | 1029.9 |
| 20260830170716 | 14 | 217 | 4.8 | 8.0 | 0.00 | 0.00 | 0.00 | 82 | 1030.0 |
| 20260830170215 | 14 | 222 | 8.0 | 9.7 | 0.00 | 0.00 | 0.00 | 82 | 1030.0 |
| 20260830165215 | 14 | 188 | 6.4 | 9.7 | 0.00 | 0.00 | 0.00 | 82 | 1030.1 |
| 20260830164715 | 14 | 197 | 3.2 | 8.0 | 0.00 | 0.00 | 0.00 | 82 | 1030.2 |
| 20260830164215 | 14 | 190 | 6.4 | 9.7 | 0.00 | 0.00 | 0.00 | 82 | 1030.1 |
| 20260830163715 | 14 | 199 | 8.0 | 9.7 | 0.00 | 0.00 | 0.00 | 82 | 1030.3 |
| 20260830163215 | 14 | 192 | 6.4 | 11.3 | 0.00 | 0.00 | 0.00 | 82 | 1030.3 |
| 20260830162715 | 14 | 189 | 9.7 | 11.3 | 0.00 | 0.00 | 0.00 | 82 | 1030.5 |
| 20260830162216 | 14 | 185 | 9.7 | 12.9 | 0.00 | 0.00 | 0.00 | 82 | 1030.7 |
| 20260830161215 | 14 | 193 | 11.3 | 14.5 | 0.00 | 0.00 | 0.00 | 82 | 1030.7 |
| 20260830160215 | 14 | 187 | 11.3 | 12.9 | 0.00 | 0.00 | 0.00 | 82 | 1030.6 |
| 20260830155715 | 14 | 190 | 11.3 | 16.1 | 0.00 | 0.00 | 0.00 | 82 | 1030.7 |
| 20260830155215 | 14 | 195 | 9.7 | 12.9 | 0.00 | 0.00 | 0.00 | 82 | 1030.7 |
| 20260830154715 | 14 | 192 | 9.7 | 11.3 | 0.00 | 0.00 | 0.00 | 82 | 1030.7 |
| 20260830153715 | 14 | 198 | 6.4 | 12.9 | 0.00 | 0.00 | 0.00 | 82 | 1030.7 |
| 20260830153215 | 14 | 192 | 9.7 | 12.9 | 0.00 | 0.00 | 0.00 | 82 | 1030.8 |
| 20260830152715 | 14 | 191 | 11.3 | 14.5 | 0.00 | 0.00 | 0.00 | 82 | 1030.8 |
| 20260830152215 | 14 | 188 | 11.3 | 14.5 | 0.00 | 0.00 | 0.00 | 82 | 1030.8 |
| 20260830151715 | 14 | 192 | 9.7 | 12.9 | 0.00 | 0.00 | 0.00 | 82 | 1030.7 |
| 20260830151215 | 14 | 190 | 11.3 | 12.9 | 0.00 | 0.00 | 0.00 | 82 | 1031.0 |
| 20260830150716 | 14 | 191 | 11.3 | 12.9 | 0.00 | 0.00 | 0.00 | 82 | 1031.0 |
| 20260830150215 | 14 | 186 | 9.7 | 11.3 | 0.00 | 0.00 | 0.00 | 82 | 1030.8 |
| 20260830145715 | 14 | 184 | 11.3 | 12.9 | 0.00 | 0.00 | 0.00 | 82 | 1030.9 |
| 20260830145215 | 14 | 188 | 11.3 | 14.5 | 0.00 | 0.00 | 0.00 | 82 | 1030.8 |
| 20260830144715 | 14 | 193 | 11.3 | 14.5 | 0.00 | 0.00 | 0.00 | 82 | 1031.1 |
| 20260830144215 | 14 | 191 | 11.3 | 14.5 | 0.00 | 0.00 | 0.00 | 82 | 1031.0 |
| 20260830143715 | 14 | 197 | 9.7 | 12.9 | 0.00 | 0.00 | 0.00 | 82 | 1030.9 |
| 20260830141715 | 15 | 184 | 8.0 | 12.9 | 0.00 | 0.00 | 0.00 | 82 | 1030.9 |
| 20260830141215 | 15 | 182 | 9.7 | 11.3 | 0.00 | 0.00 | 0.00 | 82 | 1031.0 |
| 20260830140716 | 15 | 179 | 9.7 | 12.9 | 0.00 | 0.00 | 0.00 | 82 | 1031.0 |
| 20260830140215 | 15 | 180 | 9.7 | 12.9 | 0.00 | 0.00 | 0.00 | 83 | 1030.8 |
| 20260830135716 | 15 | 179 | 11.3 | 12.9 | 0.00 | 0.00 | 0.00 | 82 | 1031.0 |
| 20260830135215 | 15 | 178 | 11.3 | 14.5 | 0.00 | 0.00 | 0.00 | 83 | 1030.8 |
| 20260830134715 | 15 | 177 | 11.3 | 14.5 | 0.00 | 0.00 | 0.00 | 82 | 1031.0 |
| 20260830134215 | 15 | 178 | 12.9 | 14.5 | 0.00 | 0.00 | 0.00 | 82 | 1030.9 |
| 20260830133715 | 15 | 180 | 12.9 | 16.1 | 0.00 | 0.00 | 0.00 | 82 | 1030.9 |
| 20260830132715 | 15 | 188 | 12.9 | 16.1 | 0.00 | 0.00 | 0.00 | 82 | 1031.0 |
| 20260830132215 | 15 | 184 | 12.9 | 16.1 | 0.00 | 0.00 | 0.00 | 82 | 1031.2 |
| 20260830131715 | 15 | 187 | 11.3 | 14.5 | 0.00 | 0.00 | 0.00 | 82 | 1031.1 |
| 20260830131215 | 15 | 186 | 11.3 | 12.9 | 0.00 | 0.00 | 0.00 | 81 | 1031.1 |
| 20260830130715 | 15 | 187 | 9.7 | 11.3 | 0.00 | 0.00 | 0.00 | 81 | 1031.1 |
| 20260830130215 | 15 | 191 | 9.7 | 11.3 | 0.00 | 0.00 | 0.00 | 81 | 1031.1 |
| 20260830125715 | 15 | 185 | 9.7 | 11.3 | 0.00 | 0.00 | 0.00 | 81 | 1031.1 |
| 20260830125214 | 15 | 194 | 8.0 | 12.9 | 0.00 | 0.00 | 0.00 | 81 | 1031.2 |
| 20260830124714 | 15 | 180 | 9.7 | 12.9 | 0.00 | 0.00 | 0.00 | 80 | 1031.2 |
| 20260830124215 | 15 | 184 | 9.7 | 12.9 | 0.00 | 0.00 | 0.00 | 81 | 1031.2 |
| 20260830123715 | 15 | 180 | 11.3 | 14.5 | 0.00 | 0.00 | 0.00 | 81 | 1031.3 |
| 20260830122215 | 15 | 173 | 9.7 | 11.3 | 0.00 | 0.00 | 0.00 | 80 | 1031.2 |
| 20260830121715 | 15 | 170 | 8.0 | 11.3 | 0.00 | 0.00 | 0.00 | 81 | 1031.3 |
| 20260830121216 | 15 | 152 | 9.7 | 11.3 | 0.00 | 0.00 | 0.00 | 81 | 1031.2 |
| 20260830120714 | 14 | 164 | 9.7 | 11.3 | 0.00 | 0.00 | 0.00 | 81 | 1031.5 |
| 20260830120215 | 14 | 182 | 9.7 | 12.9 | 0.00 | 0.00 | 0.00 | 80 | 1031.1 |
| 20260830115714 | 14 | 202 | 8.0 | 14.5 | 0.00 | 0.00 | 0.00 | 80 | 1031.1 |
| 20260830115215 | 14 | 241 | 8.0 | 14.5 | 0.00 | 0.00 | 0.00 | 80 | 1031.0 |
| 20260830114715 | 14 | 203 | 8.0 | 11.3 | 0.00 | 0.00 | 0.00 | 79 | 1031.1 |
| 20260830114214 | 14 | 246 | 8.0 | 9.7 | 0.00 | 0.00 | 0.00 | 79 | 1030.8 |
| 20260830113715 | 15 | 249 | 9.7 | 9.7 | 0.00 | 0.00 | 0.00 | 78 | 1030.8 |
| 20260830113215 | 15 | 266 | 6.4 | 8.0 | 0.00 | 0.00 | 0.00 | 78 | 1030.7 |
| 20260830112715 | 15 | 259 | 4.8 | 8.0 | 0.00 | 0.00 | 0.00 | 78 | 1030.6 |
| 20260830112215 | 15 | 256 | 4.8 | 8.0 | 0.00 | 0.00 | 0.00 | 78 | 1030.4 |
| 20260830111715 | 15 | 259 | 3.2 | 4.8 | 0.00 | 0.00 | 0.00 | 78 | 1030.4 |
| 20260830111215 | 15 | 259 | 3.2 | 4.8 | 0.00 | 0.00 | 0.00 | 79 | 1030.7 |
| 20260830110214 | 15 | 259 | 4.8 | 4.8 | 0.00 | 0.00 | 0.00 | 79 | 1030.4 |
| 20260830105714 | 15 | 247 | 3.2 | 4.8 | 0.00 | 0.00 | 0.00 | 79 | 1030.3 |
| 20260830104716 | 15 | 250 | 6.4 | 8.0 | 0.00 | 0.00 | 0.00 | 79 | 1030.7 |
| 20260830104214 | 15 | 246 | 4.8 | 4.8 | 0.00 | 0.00 | 0.00 | 79 | 1030.6 |
| 20260830102714 | 15 | 256 | 4.8 | 8.0 | 0.00 | 0.00 | 0.00 | 78 | 1030.3 |
| 20260830102214 | 15 | 256 | 4.8 | 8.0 | 0.00 | 0.00 | 0.00 | 78 | 1030.4 |
| 20260830101715 | 15 | 256 | 4.8 | 4.8 | 0.00 | 0.00 | 0.00 | 77 | 1030.2 |
| 20260830101215 | 15 | 265 | 4.8 | 4.8 | 0.00 | 0.00 | 0.00 | 77 | 1030.2 |
| 20260830100714 | 15 | 288 | 0.0 | 1.6 | 0.00 | 0.00 | 0.00 | 77 | 1030.2 |
| 20260830100214 | 15 | 288 | 1.6 | 4.8 | 0.00 | 0.00 | 0.00 | 76 | 1030.2 |
| 20260830095215 | 15 | 143 | 1.6 | 4.8 | 0.00 | 0.00 | 0.00 | 75 | 1030.2 |
| 20260830094714 | 16 | 79 | 0.0 | 3.2 | 0.00 | 0.00 | 0.00 | 75 | 1030.1 |
| 20260830094214 | 16 | 79 | 3.2 | 4.8 | 0.00 | 0.00 | 0.00 | 75 | 1030.3 |
| 20260830093715 | 16 | 79 | 3.2 | 4.8 | 0.00 | 0.00 | 0.00 | 75 | 1030.1 |
| 20260830093215 | 16 | 79 | 1.6 | 4.8 | 0.00 | 0.00 | 0.00 | 74 | 1030.0 |
| 20260830092714 | 16 | 79 | 3.2 | 4.8 | 0.00 | 0.00 | 0.00 | 74 | 1030.0 |
| 20260830092214 | 16 | 79 | 1.6 | 3.2 | 0.00 | 0.00 | 0.00 | 73 | 1030.3 |
| 20260830091715 | 16 | 79 | 0.0 | 1.6 | 0.00 | 0.00 | 0.00 | 73 | 1030.1 |
| 20260830091215 | 16 | 79 | 0.0 | 4.8 | 0.00 | 0.00 | 0.00 | 73 | 1029.8 |
| 20260830090714 | 16 | 78 | 3.2 | 8.0 | 0.00 | 0.00 | 0.00 | 73 | 1029.9 |
| 20260830090215 | 16 | 87 | 4.8 | 8.0 | 0.00 | 0.00 | 0.00 | 73 | 1029.8 |
| 20260830085714 | 16 | 84 | 4.8 | 8.0 | 0.00 | 0.00 | 0.00 | 72 | 1029.7 |
| 20260830085214 | 16 | 76 | 4.8 | 8.0 | 0.00 | 0.00 | 0.00 | 72 | 1029.8 |
| 20260830084714 | 16 | 98 | 4.8 | 8.0 | 0.00 | 0.00 | 0.00 | 72 | 1029.7 |
| 20260830084215 | 16 | 81 | 4.8 | 9.7 | 0.00 | 0.00 | 0.00 | 72 | 1029.8 |
| 20260830083714 | 16 | 92 | 4.8 | 8.0 | 0.00 | 0.00 | 0.00 | 72 | 1029.7 |
| 20260830083214 | 16 | 81 | 3.2 | 4.8 | 0.00 | 0.00 | 0.00 | 71 | 1029.5 |
| 20260830082714 | 16 | 82 | 4.8 | 4.8 | 0.00 | 0.00 | 0.00 | 72 | 1029.6 |
| 20260830082215 | 16 | 72 | 4.8 | 4.8 | 0.00 | 0.00 | 0.00 | 71 | 1029.4 |
| 20260830081714 | 16 | 74 | 4.8 | 4.8 | 0.00 | 0.00 | 0.00 | 71 | 1029.4 |
| 20260830081214 | 16 | 47 | 3.2 | 4.8 | 0.00 | 0.00 | 0.00 | 71 | 1029.5 |
| 20260830080714 | 16 | 35 | 4.8 | 4.8 | 0.00 | 0.00 | 0.00 | 70 | 1029.3 |
| 20260830080215 | 16 | 35 | 3.2 | 4.8 | 0.00 | 0.00 | 0.00 | 70 | 1029.3 |
| 20260830075214 | 16 | 40 | 4.8 | 8.0 | 0.00 | 0.00 | 0.00 | 69 | 1029.1 |
| 20260830073714 | 16 | 49 | 8.0 | 8.0 | 0.00 | 0.00 | 0.00 | 70 | 1029.3 |
| 20260830073214 | 16 | 47 | 4.8 | 11.3 | 0.00 | 0.00 | 0.00 | 70 | 1029.1 |
| 20260830072714 | 16 | 61 | 9.7 | 11.3 | 0.00 | 0.00 | 0.00 | 69 | 1029.3 |
| 20260830071715 | 17 | 76 | 8.0 | 11.3 | 0.00 | 0.00 | 0.00 | 69 | 1029.1 |
| 20260830071214 | 17 | 80 | 9.7 | 11.3 | 0.00 | 0.00 | 0.00 | 69 | 1029.1 |
| 20260830070714 | 16 | 65 | 9.7 | 12.9 | 0.00 | 0.00 | 0.00 | 68 | 1029.0 |
| 20260830070214 | 16 | 67 | 9.7 | 12.9 | 0.00 | 0.00 | 0.00 | 68 | 1029.1 |
| 20260830065714 | 16 | 55 | 9.7 | 11.3 | 0.00 | 0.00 | 0.00 | 68 | 1028.8 |
| 20260830065214 | 16 | 59 | 9.7 | 11.3 | 0.00 | 0.00 | 0.00 | 68 | 1028.9 |
| 20260830064213 | 16 | 56 | 8.0 | 9.7 | 0.00 | 0.00 | 0.00 | 67 | 1028.8 |
| 20260830063714 | 17 | 53 | 8.0 | 9.7 | 0.00 | 0.00 | 0.00 | 66 | 1028.9 |
| 20260830062715 | 17 | 66 | 8.0 | 9.7 | 0.00 | 0.00 | 0.00 | 64 | 1028.9 |
| 20260830062214 | 17 | 64 | 8.0 | 9.7 | 0.00 | 0.00 | 0.00 | 65 | 1028.8 |
| 20260830061714 | 17 | 65 | 8.0 | 9.7 | 0.00 | 0.00 | 0.00 | 66 | 1028.8 |
| 20260830060214 | 17 | 69 | 9.7 | 11.3 | 0.00 | 0.00 | 0.00 | 64 | 1028.9 |
| 20260830055714 | 17 | 69 | 9.7 | 12.9 | 0.00 | 0.00 | 0.00 | 62 | 1028.9 |
| 20260830055214 | 17 | 72 | 8.0 | 11.3 | 0.00 | 0.00 | 0.00 | 62 | 1029.0 |
| 20260830054214 | 18 | 77 | 11.3 | 14.5 | 0.00 | 0.00 | 0.00 | 60 | 1028.9 |
| 20260830053714 | 18 | 79 | 9.7 | 12.9 | 0.00 | 0.00 | 0.00 | 59 | 1029.0 |
| 20260830053214 | 18 | 80 | 8.0 | 12.9 | 0.00 | 0.00 | 0.00 | 58 | 1029.1 |
| 20260830052713 | 18 | 83 | 8.0 | 12.9 | 0.00 | 0.00 | 0.00 | 58 | 1029.1 |
| 20260830051714 | 18 | 84 | 6.4 | 11.3 | 0.00 | 0.00 | 0.00 | 60 | 1029.0 |
| 20260830051214 | 18 | 79 | 8.0 | 12.9 | 0.00 | 0.00 | 0.00 | 60 | 1029.4 |
| 20260830050714 | 18 | 81 | 6.4 | 9.7 | 0.00 | 0.00 | 0.00 | 60 | 1029.3 |
| 20260830050213 | 18 | 84 | 8.0 | 9.7 | 0.00 | 0.00 | 0.00 | 59 | 1029.4 |
| 20260830045214 | 18 | 95 | 8.0 | 9.7 | 0.00 | 0.00 | 0.00 | 61 | 1029.3 |
| 20260830044214 | 17 | 97 | 8.0 | 9.7 | 0.00 | 0.00 | 0.00 | 63 | 1029.5 |
| 20260830043714 | 17 | 96 | 8.0 | 11.3 | 0.00 | 0.00 | 0.00 | 63 | 1029.4 |
| 20260830042714 | 17 | 97 | 9.7 | 11.3 | 0.00 | 0.00 | 0.00 | 63 | 1029.4 |
| 20260830042213 | 18 | 105 | 9.7 | 11.3 | 0.00 | 0.00 | 0.00 | 62 | 1029.3 |
| 20260830041714 | 18 | 99 | 8.0 | 11.3 | 0.00 | 0.00 | 0.00 | 62 | 1029.5 |
| 20260830041214 | 18 | 104 | 9.7 | 11.3 | 0.00 | 0.00 | 0.00 | 63 | 1029.3 |
| 20260830040714 | 18 | 102 | 8.0 | 12.9 | 0.00 | 0.00 | 0.00 | 62 | 1029.4 |
| 20260830040214 | 18 | 90 | 8.0 | 11.3 | 0.00 | 0.00 | 0.00 | 62 | 1029.5 |
| 20260830035714 | 18 | 107 | 11.3 | 14.5 | 0.00 | 0.00 | 0.00 | 62 | 1029.5 |
| 20260830035214 | 18 | 109 | 11.3 | 12.9 | 0.00 | 0.00 | 0.00 | 63 | 1029.5 |
| 20260830034214 | 18 | 105 | 9.7 | 11.3 | 0.00 | 0.00 | 0.00 | 61 | 1029.5 |
| 20260830033714 | 18 | 112 | 9.7 | 12.9 | 0.00 | 0.00 | 0.00 | 61 | 1029.4 |
| 20260830033214 | 18 | 104 | 8.0 | 12.9 | 0.00 | 0.00 | 0.00 | 61 | 1029.7 |
| 20260830032214 | 18 | 113 | 11.3 | 14.5 | 0.00 | 0.00 | 0.00 | 60 | 1029.7 |
| 20260830031713 | 18 | 107 | 9.7 | 14.5 | 0.00 | 0.00 | 0.00 | 61 | 1029.7 |
| 20260830031213 | 18 | 96 | 9.7 | 12.9 | 0.00 | 0.00 | 0.00 | 60 | 1029.9 |
| 20260830030713 | 18 | 101 | 9.7 | 11.3 | 0.00 | 0.00 | 0.00 | 60 | 1029.8 |
| 20260830030214 | 18 | 111 | 9.7 | 12.9 | 0.00 | 0.00 | 0.00 | 60 | 1029.8 |
| 20260830025714 | 18 | 106 | 9.7 | 12.9 | 0.00 | 0.00 | 0.00 | 59 | 1029.8 |
| 20260830025214 | 18 | 107 | 9.7 | 11.3 | 0.00 | 0.00 | 0.00 | 59 | 1030.1 |
| 20260830024713 | 18 | 90 | 8.0 | 12.9 | 0.00 | 0.00 | 0.00 | 59 | 1029.9 |
| 20260830024214 | 18 | 93 | 8.0 | 11.3 | 0.00 | 0.00 | 0.00 | 60 | 1029.9 |
| 20260830023713 | 18 | 94 | 9.7 | 11.3 | 0.00 | 0.00 | 0.00 | 60 | 1030.0 |
| 20260830023213 | 18 | 94 | 9.7 | 12.9 | 0.00 | 0.00 | 0.00 | 59 | 1030.1 |
| 20260830022713 | 18 | 106 | 8.0 | 11.3 | 0.00 | 0.00 | 0.00 | 58 | 1030.1 |